EN

Hourly Weather Alsodux

Today, 20 January, Wednesday

Time Temperature Precipitation Wind Pressure Humidity
00:00 +6°C° 0 mm 2 mps 693 mmHg 56%
01:00 +6°C° 0 mm 2 mps 693 mmHg 54%
02:00 +5°C° 0 mm 3 mps 692 mmHg 52%
03:00 +5°C° 0 mm 3 mps 692 mmHg 50%
04:00 +5°C° 0 mm 3 mps 691 mmHg 49%
05:00 +5°C° 0 mm 3 mps 691 mmHg 48%
06:00 +5°C° 0 mm 3 mps 691 mmHg 47%
07:00 +7°C° 0 mm 3 mps 691 mmHg 47%
08:00 +8°C° 0 mm 3 mps 691 mmHg 47%
09:00 +7°C° 0 mm 4 mps 691 mmHg 47%
10:00 +8°C° 0 mm 4 mps 691 mmHg 45%
11:00 +9°C° 0 mm 5 mps 692 mmHg 44%
12:00 +10°C° 0 mm 6 mps 692 mmHg 42%
13:00 +10°C° 0.1 mm 5 mps 691 mmHg 50%
14:00 +10°C° 0.1 mm 5 mps 690 mmHg 58%
15:00 +9°C° 0.1 mm 5 mps 690 mmHg 66%
16:00 +10°C° 0.2 mm 4 mps 690 mmHg 72%
17:00 +8°C° 0.2 mm 4 mps 689 mmHg 79%
18:00 +7°C° 0.2 mm 4 mps 689 mmHg 86%
19:00 +7°C° 0.2 mm 4 mps 690 mmHg 88%
20:00 +7°C° 0.2 mm 4 mps 690 mmHg 90%
21:00 +6°C° 0.2 mm 4 mps 690 mmHg 92%
22:00 +6°C° 0.1 mm 4 mps 690 mmHg 90%
23:00 +6°C° 0.1 mm 4 mps 691 mmHg 89%

Tomorrow, 21 January, Thursday

Time Temperature Precipitation Wind Pressure Humidity
00:00 +6°C° 0.1 mm 4 mps 691 mmHg 87%
01:00 +6°C° 0 mm 4 mps 691 mmHg 85%
02:00 +7°C° 0 mm 3 mps 691 mmHg 82%
03:00 +5°C° 0 mm 3 mps 691 mmHg 80%
04:00 +5°C° 0 mm 3 mps 691 mmHg 80%
05:00 +5°C° 0 mm 3 mps 691 mmHg 79%
06:00 +5°C° 0 mm 3 mps 692 mmHg 79%
07:00 +7°C° 0 mm 3 mps 692 mmHg 76%
08:00 +8°C° 0 mm 3 mps 693 mmHg 73%
09:00 +9°C° 0 mm 3 mps 693 mmHg 70%
10:00 +10°C° 0 mm 4 mps 693 mmHg 65%
11:00 +11°C° 0 mm 4 mps 694 mmHg 60%
12:00 +13°C° 0 mm 4 mps 694 mmHg 55%
13:00 +13°C° 0 mm 5 mps 693 mmHg 55%
14:00 +13°C° 0 mm 5 mps 693 mmHg 56%
15:00 +13°C° 0 mm 5 mps 693 mmHg 56%
16:00 +12°C° 0 mm 5 mps 692 mmHg 63%
17:00 +10°C° 0 mm 4 mps 692 mmHg 71%
18:00 +8°C° 0 mm 4 mps 692 mmHg 78%
19:00 +8°C° 0 mm 4 mps 692 mmHg 77%
20:00 +8°C° 0 mm 4 mps 692 mmHg 77%
21:00 +8°C° 0 mm 5 mps 692 mmHg 76%
22:00 +8°C° 0 mm 5 mps 692 mmHg 76%
23:00 +8°C° 0 mm 5 mps 692 mmHg 76%

Day after tomorrow, 22 January, Friday

Time Temperature Precipitation Wind Pressure Humidity
00:00 +8°C° 0 mm 5 mps 692 mmHg 77%
01:00 +8°C° 0 mm 5 mps 691 mmHg 78%
02:00 +8°C° 0 mm 5 mps 691 mmHg 79%
03:00 +8°C° 0 mm 6 mps 690 mmHg 81%
04:00 +8°C° 0 mm 6 mps 690 mmHg 82%
05:00 +8°C° 0 mm 6 mps 690 mmHg 83%
06:00 +8°C° 0 mm 6 mps 690 mmHg 84%
07:00 +9°C° 0 mm 6 mps 690 mmHg 82%
08:00 +9°C° 0 mm 6 mps 690 mmHg 79%
09:00 +10°C° 0 mm 7 mps 690 mmHg 77%
10:00 +11°C° 0 mm 7 mps 690 mmHg 71%
11:00 +12°C° 0 mm 8 mps 690 mmHg 65%
12:00 +13°C° 0 mm 8 mps 690 mmHg 58%
13:00 +13°C° 0 mm 9 mps 690 mmHg 58%
14:00 +12°C° 0 mm 10 mps 690 mmHg 58%
15:00 +12°C° 0 mm 10 mps 690 mmHg 58%
16:00 +10°C° 0 mm 9 mps 690 mmHg 60%
17:00 +9°C° 0 mm 8 mps 690 mmHg 62%
18:00 +6°C° 0 mm 7 mps 691 mmHg 64%
19:00 +5°C° 0 mm 6 mps 691 mmHg 66%
20:00 +5°C° 0 mm 6 mps 692 mmHg 68%
21:00 +6°C° 0 mm 5 mps 692 mmHg 69%
22:00 +5°C° 0 mm 5 mps 693 mmHg 70%
23:00 +5°C° 0 mm 4 mps 693 mmHg 70%

23 January, Saturday

Time Temperature Precipitation Wind Pressure Humidity
00:00 +5°C° 0 mm 3 mps 693 mmHg 70%
01:00 +4°C° 0 mm 3 mps 693 mmHg 69%
02:00 +4°C° 0 mm 3 mps 693 mmHg 69%
03:00 +4°C° 0 mm 3 mps 693 mmHg 68%
04:00 +4°C° 0 mm 3 mps 693 mmHg 62%
05:00 +3°C° 0 mm 3 mps 693 mmHg 56%
06:00 +3°C° 0 mm 3 mps 693 mmHg 50%
07:00 +4°C° 0 mm 3 mps 693 mmHg 48%
08:00 +5°C° 0 mm 3 mps 694 mmHg 46%
09:00 +7°C° 0 mm 3 mps 694 mmHg 44%
10:00 +8°C° 0 mm 3 mps 694 mmHg 40%
11:00 +10°C° 0 mm 3 mps 695 mmHg 37%
12:00 +12°C° 0 mm 2 mps 695 mmHg 33%
13:00 +11°C° 0 mm 3 mps 694 mmHg 36%
14:00 +11°C° 0 mm 3 mps 694 mmHg 38%
15:00 +11°C° 0 mm 3 mps 693 mmHg 40%
16:00 +10°C° 0 mm 3 mps 693 mmHg 49%
17:00 +8°C° 0 mm 3 mps 693 mmHg 58%
18:00 +7°C° 0 mm 3 mps 693 mmHg 67%
19:00 +7°C° 0 mm 3 mps 693 mmHg 68%
20:00 +6°C° 0 mm 4 mps 693 mmHg 69%
21:00 +6°C° 0 mm 4 mps 693 mmHg 70%
22:00 +6°C° 0 mm 4 mps 692 mmHg 71%
23:00 +7°C° 0 mm 4 mps 692 mmHg 72%

24 January, Sunday

Time Temperature Precipitation Wind Pressure Humidity
00:00 +7°C° 0 mm 5 mps 692 mmHg 73%
01:00 +7°C° 0 mm 5 mps 691 mmHg 74%
02:00 +7°C° 0 mm 5 mps 691 mmHg 76%
03:00 +7°C° 0 mm 6 mps 691 mmHg 77%
04:00 +7°C° 0 mm 5 mps 691 mmHg 79%
05:00 +7°C° 0 mm 5 mps 690 mmHg 80%
06:00 +7°C° 0 mm 5 mps 690 mmHg 81%
07:00 +8°C° 0 mm 5 mps 691 mmHg 78%
08:00 +9°C° 0 mm 6 mps 692 mmHg 75%
09:00 +10°C° 0 mm 6 mps 693 mmHg 72%
10:00 +13°C° 0 mm 6 mps 693 mmHg 66%
11:00 +14°C° 0 mm 6 mps 693 mmHg 61%
12:00 +15°C° 0 mm 6 mps 694 mmHg 55%
13:00 +15°C° 0 mm 6 mps 693 mmHg 56%
14:00 +15°C° 0 mm 6 mps 693 mmHg 56%
15:00 +15°C° 0 mm 5 mps 692 mmHg 56%
16:00 +14°C° 0 mm 5 mps 692 mmHg 62%
17:00 +12°C° 0 mm 4 mps 692 mmHg 68%
18:00 +11°C° 0 mm 3 mps 692 mmHg 74%
19:00 +11°C° 0 mm 3 mps 692 mmHg 74%
20:00 +12°C° 0 mm 2 mps 692 mmHg 75%
21:00 +12°C° 0 mm 2 mps 693 mmHg 75%
22:00 +12°C° 0 mm 2 mps 692 mmHg 75%
23:00 +12°C° 0 mm 2 mps 692 mmHg 76%

25 January, Monday

Time Temperature Precipitation Wind Pressure Humidity
00:00 +12°C° 0 mm 2 mps 692 mmHg 77%
01:00 +10°C° 0 mm 2 mps 692 mmHg 78%
02:00 +10°C° 0 mm 2 mps 692 mmHg 79%
03:00 +10°C° 0 mm 2 mps 692 mmHg 80%
04:00 +9°C° 0 mm 2 mps 692 mmHg 80%
05:00 +9°C° 0 mm 2 mps 692 mmHg 80%
06:00 +9°C° 0 mm 2 mps 692 mmHg 80%
07:00 +10°C° 0 mm 2 mps 693 mmHg 77%
08:00 +10°C° 0 mm 2 mps 694 mmHg 75%
09:00 +12°C° 0 mm 2 mps 694 mmHg 72%
10:00 +13°C° 0 mm 2 mps 695 mmHg 65%
11:00 +15°C° 0 mm 2 mps 695 mmHg 59%
12:00 +16°C° 0 mm 1 mps 695 mmHg 52%
13:00 +16°C° 0 mm 2 mps 695 mmHg 54%
14:00 +16°C° 0 mm 2 mps 695 mmHg 55%
15:00 +16°C° 0 mm 2 mps 695 mmHg 56%
16:00 +15°C° 0 mm 1 mps 695 mmHg 64%
17:00 +14°C° 0 mm 1 mps 694 mmHg 72%
18:00 +12°C° 0 mm 1 mps 694 mmHg 80%
19:00 +12°C° 0 mm 1 mps 695 mmHg 80%
20:00 +12°C° 0 mm 1 mps 695 mmHg 80%
21:00 +10°C° 0 mm 2 mps 696 mmHg 80%
22:00 +10°C° 0 mm 2 mps 696 mmHg 80%
23:00 +10°C° 0 mm 2 mps 696 mmHg 80%
Show more